CST,Max TemperatureF,Mean TemperatureF,Min TemperatureF,Max Dew PointF,MeanDew PointF,Min DewpointF,Max Humidity, Mean Humidity, Min Humidity, Max Sea Level PressureIn, Mean Sea Level PressureIn, Min Sea Level PressureIn, Max VisibilityMiles, Mean VisibilityMiles, Min VisibilityMiles, Max Wind SpeedMPH, Mean Wind SpeedMPH, Max Gust SpeedMPH,PrecipitationIn, CloudCover, Events, WindDirDegrees
2012-1-1,51,44,36,38,27,13,86,58,30,30.30,30.02,29.62,10,10,7,39,22,51,0.01,3,Rain,278
2012-1-2,32,28,24,19,14,8,63,55,44,30.45,30.35,30.29,10,10,10,31,21,40,0.00,6,,302
2012-1-3,36,25,14,14,10,6,86,55,28,30.51,30.36,30.11,10,10,10,14,6,21,0.00,0,,200
2012-1-4,48,40,32,30,22,12,64,50,41,30.17,30.05,29.99,10,10,10,17,11,22,0.00,0,,246
2012-1-5,61,47,33,32,29,26,74,54,32,30.11,30.01,29.88,10,10,10,14,9,17,0.00,0,,221
2012-1-6,64,54,45,35,32,31,60,45,30,29.82,29.78,29.72,10,10,10,17,10,23,0.00,0,,230
2012-1-7,48,40,31,31,28,26,87,63,45,30.18,30.08,29.93,10,10,10,13,8,10,0.00,0,,301
2012-1-8,45,34,24,33,29,22,93,78,57,30.36,30.30,30.25,10,10,7,6,3,,0.00,2,,68
2012-1-9,51,36,22,32,26,21,94,70,34,30.29,30.20,30.11,10,8,1,12,4,17,0.00,0,,250
2012-1-10,59,46,32,32,27,24,81,56,27,30.10,30.02,29.87,10,10,10,13,5,18,0.00,0,,212
2012-1-11,56,42,27,42,30,23,85,65,36,29.76,29.62,29.54,10,10,10,15,5,20,0.00,1,,345
2012-1-12,32,24,16,28,16,12,86,80,75,29.78,29.71,29.66,10,3,0,29,20,37,0.00,8,Snow,283
2012-1-13,21,18,15,13,11,8,83,73,68,30.12,30.00,29.85,10,9,2,23,16,30,0.00,8,Snow,262
2012-1-14,28,20,11,23,16,8,86,80,74,30.23,30.10,30.04,10,8,1,12,5,,0.00,6,Snow,99
2012-1-15,41,32,24,30,25,21,86,72,61,30.32,30.21,30.02,10,9,7,22,10,30,0.00,1,,162
2012-1-16,66,52,39,50,41,31,74,66,55,29.98,29.79,29.66,10,10,10,17,11,22,0.00,1,,174
2012-1-17,60,40,19,56,28,11,95,82,69,30.35,30.00,29.61,10,8,2,30,15,39,0.79,5,Rain-Thunderstorm,290
2012-1-18,32,23,14,19,13,9,82,67,52,30.37,30.24,29.98,10,10,10,15,7,20,0.00,1,,205
2012-1-19,32,25,17,23,16,8,78,65,54,30.16,30.01,29.87,10,10,10,18,11,24,0.00,4,,319
2012-1-20,28,20,13,18,9,3,73,62,53,30.18,30.05,29.89,10,10,7,17,12,21,0.00,5,,72
2012-1-21,34,27,20,22,19,16,89,77,55,30.24,30.16,30.06,10,10,5,13,9,20,0.00,5,,35
2012-1-22,43,36,28,43,34,27,100,95,93,30.01,29.80,29.58,3,1,0,20,14,25,0.00,8,Fog-Rain,143
2012-1-23,50,42,35,50,34,28,96,79,67,30.01,29.72,29.38,10,8,2,30,15,39,0.00,8,,250
2012-1-24,41,35,29,28,26,25,85,71,54,30.34,30.23,30.06,10,10,10,15,6,20,0.00,3,,298
2012-1-25,35,32,28,33,30,26,93,88,82,30.33,30.24,30.07,10,6,3,13,7,,0.02,3,Rain,106
2012-1-26,40,37,34,38,35,33,97,95,93,30.00,29.85,29.72,7,2,0,12,6,,0.08,8,Fog-Rain,330
2012-1-27,41,36,31,32,31,28,89,78,62,30.03,29.95,29.78,10,10,10,14,8,18,0.00,3,,292
2012-1-28,43,36,29,34,25,20,92,67,39,30.26,30.18,30.00,10,9,2,23,14,30,0.00,1,Snow,262
2012-1-29,41,37,33,25,22,20,70,55,42,30.25,30.19,30.11,10,10,10,20,11,28,0.00,0,,260
2012-1-30,64,49,34,38,31,26,73,53,37,30.18,30.02,29.91,10,10,10,21,11,24,0.00,2,,178
2012-1-31,65,56,48,52,42,35,71,60,54,29.96,29.91,29.85,10,10,10,24,12,30,0.01,4,Rain,199